Date,TemperatureHighF,TemperatureAvgF,TemperatureLowF,DewpointHighF,DewpointAvgF,DewpointLowF,HumidityHigh,HumidityAvg,HumidityLow,PressureMaxIn,PressureMinIn,WindSpeedMaxMPH,WindSpeedAvgMPH,GustSpeedMaxMPH,PrecipitationSumIn
2013-1-1,20,12,7,8,5,3,85,72,49,0.00,40.00,14,9,20,0.02
2013-1-2,30,17,9,6,0,-7,82,51,23,0.00,40.00,12,7,15,0.01
2013-1-3,32,26,23,2,0,-1,37,32,24,0.00,40.00,16,10,19,0.01
2013-1-4,28,25,22,21,10,-2,90,56,26,0.00,40.00,14,8,22,0.00
2013-1-5,29,24,19,19,14,7,90,68,43,0.00,40.00,16,10,25,0.00
2013-1-6,26,23,18,20,14,7,90,70,48,0.00,40.00,17,9,23,0.00
2013-1-7,26,22,18,24,18,11,92,84,72,0.00,40.00,18,13,30,0.00
2013-1-8,28,24,21,27,20,15,94,84,69,0.00,40.00,19,10,29,0.00
2013-1-9,30,28,26,27,22,18,94,78,69,0.00,40.00,20,16,30,0.00
2013-1-10,28,16,9,27,12,5,94,86,82,0.00,40.00,24,11,32,0.00
2013-1-11,9,2,-1,5,-3,-7,82,78,76,0.00,40.00,5,3,9,0.00
2013-1-12,13,10,8,9,6,3,82,80,79,0.00,40.00,0,0,0,0.00
2013-1-13,16,-1,-3,12,-7,-9,84,76,75,0.00,40.00,0,0,0,0.00
2013-1-14,9,3,-3,5,-3,-9,82,78,74,0.00,40.00,0,0,0,0.00
2013-1-15,24,17,9,21,13,5,89,86,82,0.00,40.00,0,0,1,0.00
2013-1-16,34,27,20,18,13,9,88,56,40,0.00,40.00,21,11,30,0.03
2013-1-17,40,32,27,11,9,6,47,38,30,0.00,40.00,16,9,26,0.02
2013-1-18,41,33,29,10,6,3,40,32,24,0.00,40.00,17,12,28,0.00
2013-1-19,40,32,28,7,3,-2,37,29,22,0.00,40.00,14,9,24,0.00
2013-1-20,37,31,26,11,6,2,40,34,28,0.00,40.00,15,11,29,0.00
2013-1-21,42,34,30,11,7,-2,42,32,21,0.00,40.00,9,7,16,0.00
2013-1-22,43,36,31,3,-6,-14,22,16,9,0.00,40.00,12,10,16,0.00
2013-1-23,38,35,32,22,6,-2,60,30,19,0.00,40.00,21,14,37,0.00
2013-1-24,32,28,25,27,23,19,94,84,60,0.00,40.00,21,13,37,0.02
2013-1-25,28,27,25,26,23,18,93,85,74,0.00,40.00,16,12,21,0.01
2013-1-26,31,25,20,28,23,17,93,91,89,0.00,40.00,16,8,20,0.05
2013-1-27,20,15,12,17,11,8,89,85,83,0.00,40.00,8,6,12,0.01
2013-1-28,17,14,11,12,10,7,86,83,79,0.00,40.00,6,4,9,0.01
2013-1-29,17,15,13,14,11,9,87,85,83,0.00,40.00,8,5,13,0.00
2013-1-30,24,22,17,22,20,14,91,90,87,0.00,40.00,9,8,15,0.00
2013-1-31,30,27,25,28,25,23,94,92,92,0.00,40.00,4,2,7,0.05
2013-2-1,27,23,20,25,21,17,92,90,89,0.00,40.00,6,4,10,0.04
2013-2-2,35,26,20,25,20,16,89,79,55,0.00,40.00,11,6,15,0.06
2013-2-3,35,29,26,19,14,10,69,54,45,0.00,40.00,15,11,22,0.01
2013-2-4,30,25,24,25,19,13,89,77,58,0.00,40.00,16,9,22,0.03
2013-2-5,39,28,22,24,21,14,93,76,48,0.00,40.00,17,11,33,0.01
2013-2-6,26,21,19,21,17,13,90,83,69,0.00,40.00,16,9,22,0.02
2013-2-7,27,22,18,14,11,10,82,65,52,0.00,40.00,18,13,27,0.01
2013-2-8,24,20,18,18,16,12,91,82,66,0.00,40.00,18,9,23,0.00
2013-2-9,20,16,14,16,12,10,90,84,75,0.00,40.00,16,10,26,0.00
2013-2-10,20,15,12,16,11,8,86,84,81,0.00,40.00,10,5,19,0.00
2013-2-11,22,15,11,17,11,7,87,84,78,0.00,40.00,14,9,22,0.00
2013-2-12,23,20,17,20,17,14,90,88,86,0.00,40.00,14,8,27,0.00
2013-2-13,27,24,20,23,20,14,91,86,77,0.00,40.00,24,14,47,0.02
2013-2-14,23,20,18,17,15,13,89,82,72,0.00,40.00,18,14,30,0.01
2013-2-15,36,26,20,24,20,17,89,78,59,0.00,40.00,14,9,25,0.01
2013-2-16,43,31,21,24,19,14,90,60,46,0.00,40.00,24,11,51,0.01
2013-2-17,22,18,14,18,15,10,89,86,84,0.00,40.00,16,9,35,0.00
2013-2-18,23,17,13,16,10,6,85,75,57,0.00,40.00,20,10,29,0.00
2013-2-19,28,21,16,19,10,4,90,66,43,0.00,40.00,19,11,29,0.00
2013-2-20,22,17,12,17,13,8,88,84,82,0.00,40.00,17,10,24,0.01
2013-2-21,19,14,8,12,7,3,86,75,56,0.00,40.00,12,9,18,0.01
2013-2-22,23,18,14,20,14,10,90,84,73,0.00,40.00,19,10,31,0.01
2013-2-23,22,15,12,19,11,8,89,84,81,0.00,40.00,13,9,27,0.00
2013-2-24,23,16,11,15,10,7,83,77,63,0.00,40.00,12,8,22,0.00
2013-2-25,23,17,14,18,11,6,86,77,63,0.00,40.00,17,11,26,0.00
2013-2-26,23,15,12,18,10,6,85,80,69,0.00,40.00,12,8,19,0.01
2013-2-27,31,21,13,11,7,4,79,57,36,0.00,40.00,15,10,34,0.01
2013-2-28,27,23,18,25,18,6,93,80,51,0.00,40.00,12,9,18,0.01
2013-3-1,38,32,27,33,29,25,95,89,76,0.00,40.00,17,8,21,0.05
2013-3-2,44,36,31,30,23,21,84,63,39,0.00,40.00,19,12,31,0.05
2013-3-3,33,20,13,27,16,8,94,84,69,0.00,40.00,28,14,44,0.00
2013-3-4,24,15,10,16,8,4,85,74,60,0.00,40.00,16,7,21,0.13
2013-3-5,32,21,12,10,6,4,73,55,38,0.00,40.00,18,15,28,0.01
2013-3-6,33,26,23,26,18,9,91,71,51,0.00,40.00,22,15,29,0.00
2013-3-7,37,25,18,21,14,7,91,66,37,0.00,40.00,16,6,30,0.05
2013-3-8,38,25,17,21,12,7,79,59,38,0.00,40.00,18,8,25,0.01
2013-3-9,31,22,17,16,13,9,80,68,51,0.00,40.00,18,13,27,0.00
2013-3-10,37,27,19,22,14,9,91,62,32,0.00,40.00,13,9,23,0.00
2013-3-11,33,26,22,23,17,11,91,70,39,0.00,40.00,24,14,43,0.01
2013-3-12,42,30,21,30,21,8,90,71,55,0.00,40.00,14,10,25,0.01
2013-3-13,48,39,34,27,24,22,69,56,38,0.00,40.00,16,11,25,0.00
2013-3-14,50,42,37,26,21,16,54,42,30,0.00,40.00,19,13,29,0.00
2013-3-15,42,35,30,28,22,16,82,60,35,0.00,40.00,22,15,30,0.00
2013-3-16,38,30,26,24,22,19,92,72,53,0.00,40.00,17,9,29,0.00
2013-3-17,26,17,13,24,13,9,92,85,81,0.00,40.00,25,14,44,0.00
2013-3-18,24,16,11,20,12,7,86,83,81,0.00,40.00,15,11,33,0.01
2013-3-19,28,20,12,23,14,7,86,78,44,0.00,40.00,19,11,31,0.01
2013-3-20,38,28,21,33,20,5,91,74,40,0.00,40.00,31,16,54,0.01
2013-3-21,23,16,11,18,12,7,89,83,78,0.00,40.00,14,9,31,0.01
2013-3-22,21,13,10,15,8,6,83,81,76,0.00,40.00,17,8,24,0.02
2013-3-23,22,12,7,16,7,2,83,79,74,0.00,40.00,14,7,20,0.02
2013-3-24,27,15,6,19,8,1,82,77,66,0.00,40.00,6,2,12,0.01
2013-3-25,40,23,12,15,8,3,75,55,32,0.00,40.00,10,7,15,0.01
2013-3-26,43,31,23,23,17,14,87,59,36,0.00,40.00,14,7,19,0.00
2013-3-27,47,34,29,25,18,15,63,52,38,0.00,40.00,12,6,19,0.00
2013-3-28,46,39,33,35,30,26,86,70,54,0.00,40.00,12,7,24,0.00
2013-3-29,39,34,31,32,29,26,94,82,60,0.00,40.00,18,10,24,0.03
2013-3-30,48,37,28,28,22,-100,88,61,36,0.00,40.00,11,8,19,0.03
2013-3-31,54,43,34,27,20,14,57,41,21,0.00,40.00,10,6,16,0.00
2013-4-1,51,43,36,29,24,20,59,49,39,0.00,40.00,13,6,19,0.00
2013-4-2,48,42,37,33,29,23,77,61,49,0.00,40.00,21,11,29,0.00
2013-4-3,50,40,34,34,28,25,84,65,40,0.00,40.00,12,8,20,0.00
2013-4-4,47,41,36,34,29,25,86,63,43,0.00,40.00,16,10,24,0.02
2013-4-5,40,33,29,34,29,22,94,84,55,0.00,40.00,21,11,42,0.05
2013-4-6,37,30,26,33,28,24,94,91,85,0.00,40.00,21,11,35,0.14
2013-4-7,32,28,22,29,25,18,93,90,83,0.00,40.00,18,10,31,0.10
2013-4-8,24,20,13,20,16,7,91,82,70,0.00,40.00,20,10,27,0.01
2013-4-9,33,21,8,17,10,3,81,62,40,0.00,40.00,18,9,23,0.00
2013-4-10,40,31,24,35,24,14,94,78,62,0.00,40.00,25,12,42,0.04
2013-4-11,34,27,21,28,22,17,93,81,61,0.00,40.00,22,15,35,0.02
2013-4-12,44,30,20,18,14,7,88,55,26,0.00,40.00,22,11,41,0.00
2013-4-13,30,22,16,26,18,12,93,85,61,0.00,40.00,24,14,47,0.07
2013-4-14,29,20,15,25,17,11,88,85,80,0.00,40.00,12,8,20,0.23
2013-4-15,21,15,9,15,10,4,87,78,72,0.00,40.00,12,8,23,0.04
2013-4-16,21,13,6,15,5,1,78,70,58,0.00,40.00,14,9,23,0.01
2013-4-17,29,18,6,8,3,0,76,54,29,0.00,40.00,15,9,27,0.00
2013-4-18,34,24,17,18,12,4,75,60,43,0.00,40.00,21,14,32,0.00
2013-4-19,39,30,25,31,25,17,95,83,69,0.00,40.00,13,9,24,0.00
2013-4-20,38,31,28,30,26,23,95,85,62,0.00,40.00,18,11,32,0.04
2013-4-21,37,29,16,26,21,13,91,74,51,0.00,40.00,27,11,35,0.03
2013-4-22,23,17,9,17,11,4,86,77,63,0.00,40.00,15,9,30,0.01
2013-4-23,31,24,17,15,12,8,69,58,45,0.00,40.00,14,8,22,0.01
2013-4-24,44,33,22,17,15,12,69,49,31,0.00,40.00,12,10,24,0.00
2013-4-25,48,40,33,21,18,12,51,41,32,0.00,40.00,17,12,30,0.00
2013-4-26,51,43,34,27,23,18,57,46,34,0.00,40.00,15,10,29,0.00
2013-4-27,53,44,37,28,23,18,68,45,26,0.00,40.00,22,13,34,0.00
2013-4-28,45,37,33,32,26,17,82,66,44,0.00,40.00,16,11,34,0.00
2013-4-29,35,32,28,30,24,17,94,75,48,0.00,40.00,22,15,45,0.03
2013-4-30,27,22,17,17,14,11,87,71,57,0.00,40.00,20,13,33,0.02
2013-5-1,35,25,15,16,12,6,87,60,36,0.00,40.00,16,9,20,0.01
2013-5-2,50,38,26,16,11,3,56,35,15,0.00,40.00,17,10,24,0.00
2013-5-3,41,37,32,31,22,13,95,58,32,0.00,40.00,18,10,25,0.00
2013-5-4,39,35,31,31,28,25,95,76,61,0.00,40.00,16,10,29,0.00
2013-5-5,51,41,33,34,29,25,83,63,42,0.00,40.00,12,6,17,0.00
2013-5-6,57,50,42,32,26,23,47,39,31,0.00,40.00,12,6,19,0.00
2013-5-7,57,51,45,30,26,23,52,38,28,0.00,40.00,19,7,31,0.00
2013-5-8,61,51,43,35,30,26,59,46,30,0.00,40.00,14,6,22,0.00
2013-5-9,60,53,48,35,30,26,51,42,35,0.00,40.00,13,8,26,0.00
2013-5-10,62,54,49,33,28,-100,52,38,27,0.00,40.00,13,9,21,0.00
2013-5-11,65,56,50,35,29,-100,45,37,29,0.00,40.00,17,9,23,0.00
2013-5-12,69,60,53,40,34,28,57,39,22,0.00,40.00,21,11,34,0.00
2013-5-13,68,54,39,44,39,29,84,60,24,0.00,40.00,27,13,48,0.18
2013-5-14,54,42,34,34,27,23,83,57,30,0.00,40.00,18,11,43,0.00
2013-5-15,56,43,36,37,30,25,93,61,37,0.00,40.00,21,7,27,0.04
2013-5-16,49,37,36,40,14,-100,92,77,62,0.00,40.00,12,6,20,0.06
2013-5-17,40,36,33,36,27,-100,96,86,64,0.00,40.00,10,7,14,0.42
2013-5-18,45,38,34,39,34,30,96,87,64,0.00,40.00,23,11,32,0.01
2013-5-19,43,37,33,34,32,31,95,85,70,0.00,40.00,13,11,18,0.00
2013-5-20,56,42,34,36,34,31,96,75,47,0.00,40.00,13,8,19,0.00
2013-5-21,58,48,39,36,32,28,77,57,33,0.00,40.00,19,13,30,0.04
2013-5-22,48,39,28,40,34,27,95,83,70,0.00,40.00,17,10,26,0.14
2013-5-23,44,32,26,32,25,21,94,76,48,0.00,40.00,15,7,29,0.02
2013-5-24,46,35,28,32,27,19,91,74,41,0.00,40.00,16,10,29,0.00
2013-5-25,49,39,30,40,30,25,91,73,53,0.00,40.00,12,7,22,0.01
2013-5-26,54,41,36,36,32,27,95,70,50,0.00,40.00,14,6,28,0.21
2013-5-27,48,40,34,38,35,32,96,82,57,0.00,40.00,14,6,20,0.11
2013-5-28,47,40,35,38,35,33,95,86,68,0.00,40.00,18,9,22,0.15
2013-5-29,57,40,33,34,31,25,93,74,32,0.00,40.00,18,9,31,0.03
2013-5-30,45,36,31,33,29,27,94,77,53,0.00,40.00,22,14,31,0.03
2013-5-31,46,37,30,28,25,21,86,64,44,0.00,40.00,14,9,26,0.00
2013-6-1,58,46,35,28,24,20,53,42,28,0.00,40.00,10,6,16,0.00
2013-6-2,47,40,34,40,31,22,95,73,38,0.00,40.00,18,9,30,0.55
2013-6-3,52,39,33,37,33,31,95,81,52,0.00,40.00,16,10,24,0.11
2013-6-4,53,42,35,40,35,29,96,78,52,0.00,40.00,11,6,15,0.01
2013-6-5,64,52,42,35,31,21,68,46,25,0.00,40.00,15,8,25,0.01
2013-6-6,68,58,50,40,35,27,54,43,34,0.00,40.00,14,8,24,0.00
2013-6-7,64,57,51,42,39,33,62,51,41,0.00,40.00,19,10,33,0.00
2013-6-8,65,54,43,38,32,26,65,46,25,0.00,40.00,19,13,34,0.00
2013-6-9,70,57,49,35,32,25,57,40,22,0.00,40.00,23,13,32,0.00
2013-6-10,68,57,45,38,32,23,57,39,26,0.00,40.00,17,8,24,0.00
2013-6-11,68,56,49,44,32,24,64,41,30,0.00,40.00,15,6,31,0.04
2013-6-12,59,51,45,44,40,35,74,65,55,0.00,40.00,12,7,24,0.04
2013-6-13,48,38,32,39,35,30,95,90,63,0.00,40.00,24,10,31,0.66
2013-6-14,47,38,32,35,31,28,95,77,51,0.00,40.00,12,9,23,0.03
2013-6-15,63,49,38,30,27,22,68,45,22,0.00,40.00,13,7,19,0.02
2013-6-16,67,58,49,36,29,21,40,33,24,0.00,40.00,11,6,21,0.00
2013-6-17,71,60,52,38,31,25,45,35,24,0.00,40.00,16,9,36,0.00
2013-6-18,70,60,52,43,36,31,70,42,27,0.00,40.00,28,11,38,0.00
2013-6-19,53,41,35,44,38,33,96,91,70,0.00,40.00,22,12,33,0.56
2013-6-20,43,35,32,38,33,31,96,93,81,0.00,40.00,14,11,20,0.43
2013-6-22,52,46,38,40,35,29,92,66,51,0.00,40.00,14,10,25,0.00
2013-6-23,63,51,42,37,33,29,64,51,37,0.00,40.00,9,6,14,0.00
2013-6-24,60,52,44,49,40,33,93,66,47,0.00,40.00,15,6,20,0.03
2013-6-25,56,48,43,44,40,37,90,76,52,0.00,40.00,17,12,26,0.05
2013-6-26,55,49,44,46,43,41,95,83,66,0.00,40.00,14,9,21,0.06
2013-6-27,73,58,46,49,45,42,96,66,35,0.00,40.00,9,6,16,0.03
2013-6-28,76,66,58,54,44,38,59,46,33,0.00,40.00,8,4,14,0.00
2013-6-29,76,67,63,55,48,42,64,50,40,0.00,40.00,9,5,20,0.08
2013-6-30,78,68,59,57,50,39,72,54,26,0.00,40.00,17,7,25,0.08
2013-7-1,82,72,63,52,46,39,54,41,26,0.00,40.00,8,5,16,0.00
2013-7-2,83,74,67,53,46,39,54,37,29,0.00,40.00,12,7,19,0.00
2013-7-3,77,70,64,54,47,37,61,45,28,0.00,40.00,12,9,24,0.00
2013-7-4,74,64,56,50,43,36,68,47,30,0.00,40.00,17,9,23,0.00
2013-7-5,68,59,50,46,39,34,63,49,36,0.00,40.00,17,10,26,0.15
2013-7-6,69,56,47,44,37,29,66,50,32,0.00,40.00,16,8,23,0.15
2013-7-7,73,64,54,42,36,28,43,35,28,0.00,40.00,13,6,19,0.00
2013-7-8,71,60,55,49,39,34,56,45,36,0.00,40.00,21,9,30,0.01
2013-7-9,74,61,50,41,35,24,63,41,20,0.00,40.00,19,9,29,0.01
2013-7-10,80,68,59,38,27,-100,33,22,17,0.00,40.00,15,7,34,0.00
2013-7-11,69,60,51,43,40,34,75,48,33,0.00,40.00,26,10,45,0.13
2013-7-12,65,57,51,44,38,35,56,50,40,0.00,40.00,16,11,36,0.03
2013-7-13,66,57,47,40,32,25,56,39,24,0.00,40.00,15,9,25,0.01
2013-7-14,72,61,51,36,30,25,39,32,26,0.00,40.00,12,7,22,0.00
2013-7-15,79,67,57,37,32,28,37,28,18,0.00,40.00,18,8,29,0.00
2013-7-16,78,65,55,51,47,43,87,55,35,0.00,40.00,24,9,38,0.05
2013-7-17,77,63,53,55,51,45,92,68,37,0.00,40.00,23,14,32,0.05
2013-7-18,76,66,56,45,33,22,58,33,16,0.00,40.00,17,10,28,0.00
2013-7-19,77,68,60,37,29,20,31,24,17,0.00,40.00,19,9,29,0.00
2013-7-20,77,65,57,36,24,-100,33,23,12,0.00,40.00,15,9,28,0.00
2013-7-21,78,67,57,31,24,18,30,21,11,0.00,40.00,21,9,26,0.00
2013-7-22,77,67,60,32,22,14,29,19,11,0.00,40.00,17,10,31,0.00
2013-7-23,80,67,58,31,25,21,30,21,13,0.00,40.00,14,7,20,0.00
2013-7-24,81,72,65,33,24,16,24,17,9,0.00,40.00,17,7,21,0.00
2013-7-25,81,69,59,39,30,21,37,25,15,0.00,40.00,16,9,29,0.00
2013-7-26,80,69,63,35,29,25,27,22,14,0.00,40.00,18,8,31,0.00
2013-7-27,75,67,58,31,26,14,34,22,11,0.00,40.00,17,9,29,0.00
2013-7-28,72,61,53,34,30,25,37,31,20,0.00,40.00,16,9,26,0.00
2013-7-29,70,59,52,33,26,19,39,29,17,0.00,40.00,15,8,24,0.00
2013-7-30,71,62,56,36,28,19,37,27,22,0.00,40.00,17,9,26,0.00
2013-7-31,78,64,57,35,31,28,35,29,16,0.00,40.00,9,6,20,0.00
2013-8-1,62,53,45,50,40,32,93,66,33,0.00,40.00,25,10,45,0.21
2013-8-2,59,49,43,44,40,35,94,73,51,0.00,40.00,19,11,45,0.16
2013-8-3,65,54,44,43,40,38,85,62,39,0.00,40.00,14,6,19,0.03
2013-8-4,71,59,50,41,37,31,70,46,26,0.00,40.00,17,8,21,0.00
2013-8-5,72,62,56,38,34,30,46,35,25,0.00,40.00,17,10,31,0.00
2013-8-6,73,62,53,42,38,35,56,42,28,0.00,40.00,13,8,20,0.00
2013-8-7,76,65,56,39,32,20,45,31,13,0.00,40.00,12,7,26,0.00
2013-8-8,74,64,55,38,32,22,42,31,15,0.00,40.00,16,8,22,0.00
2013-8-9,76,60,49,49,42,34,96,52,31,0.00,40.00,30,7,51,0.71
2013-8-10,73,62,54,47,40,34,63,46,25,0.00,40.00,13,7,41,0.71
2013-8-11,74,62,57,40,36,33,46,38,23,0.00,40.00,17,7,33,0.01
2013-8-12,76,62,54,40,35,30,51,38,19,0.00,40.00,14,7,32,0.00
2013-8-13,73,61,55,44,35,-100,55,41,28,0.00,40.00,13,7,28,0.00
2013-8-14,77,65,55,37,34,30,43,32,21,0.00,40.00,13,6,21,0.00
2013-8-15,82,64,60,35,19,-100,35,22,10,0.00,40.00,14,8,24,0.00
2013-8-16,80,68,65,39,27,-100,38,24,17,0.00,40.00,15,7,26,0.00
2013-8-17,75,64,56,46,40,-100,64,44,29,0.00,40.00,16,9,25,0.00
2013-8-18,76,65,55,47,42,38,63,45,27,0.00,40.00,19,10,32,0.00
2013-8-19,78,62,57,40,28,-100,52,34,17,0.00,40.00,19,10,32,0.00
2013-8-20,75,62,54,40,34,-100,54,38,25,0.00,40.00,23,11,31,0.00
2013-8-21,78,64,53,39,30,22,43,30,16,0.00,40.00,17,7,24,0.00
2013-8-22,78,66,61,41,33,25,47,29,20,0.00,40.00,17,7,24,0.00
2013-8-23,72,61,54,46,43,41,69,52,33,0.00,40.00,18,11,35,0.01
2013-8-24,74,60,53,45,39,-100,73,50,22,0.00,40.00,24,9,39,0.01
2013-8-25,74,58,52,49,41,29,68,54,26,0.00,40.00,30,13,51,0.00
2013-8-26,73,62,53,43,39,33,60,45,27,0.00,40.00,16,10,24,0.00
2013-8-27,74,61,57,42,36,32,42,39,31,0.00,40.00,13,8,19,0.00
2013-8-28,68,61,50,54,48,44,93,65,46,0.00,40.00,12,7,32,0.04
2013-8-29,76,64,58,49,44,37,64,50,24,0.00,40.00,17,10,34,0.20
2013-8-30,70,61,54,52,46,42,79,59,38,0.00,40.00,22,9,29,0.20
2013-8-31,74,61,50,45,37,-100,68,46,25,0.00,40.00,12,6,21,0.00
2013-9-1,80,69,58,36,33,29,43,28,16,0.00,40.00,12,7,18,0.00
2013-9-2,76,67,60,43,35,28,49,31,23,0.00,40.00,16,9,22,0.00
2013-9-3,69,60,55,59,47,40,90,62,47,0.00,40.00,11,6,30,0.05
2013-9-4,73,62,53,52,48,40,90,63,35,0.00,40.00,15,9,20,0.05
2013-9-5,67,60,50,55,49,44,97,67,46,0.00,40.00,22,8,33,0.46
2013-9-6,68,58,51,55,50,46,93,76,50,0.00,40.00,18,10,29,0.39
2013-9-7,71,57,47,50,41,-100,88,61,30,0.00,40.00,14,8,26,0.02
2013-9-8,57,52,45,47,41,36,78,66,53,0.00,40.00,20,11,31,0.00
2013-9-9,62,50,43,46,41,38,97,73,45,0.00,40.00,15,7,24,0.02
2013-9-10,69,60,51,44,40,36,71,49,33,0.00,40.00,10,6,17,0.02
2013-9-11,70,62,56,43,38,34,51,42,34,0.00,40.00,13,6,19,0.00
2013-9-12,72,62,54,44,40,38,60,47,33,0.00,40.00,15,8,21,0.00
2013-9-13,71,60,52,49,45,41,85,59,34,0.00,40.00,13,9,20,0.05
2013-9-14,68,58,52,48,42,-100,85,58,44,0.00,40.00,14,7,24,0.05
2013-9-15,70,58,50,47,43,39,75,59,40,0.00,40.00,16,11,26,0.00
2013-9-16,71,58,51,50,41,24,81,57,18,0.00,40.00,18,13,30,0.00
2013-9-17,52,48,42,45,42,39,95,82,67,0.00,40.00,13,7,24,0.10
2013-9-18,42,36,34,39,35,31,100,96,84,0.00,40.00,19,10,27,0.18
2013-9-19,56,43,33,33,29,23,90,62,30,0.00,40.00,11,6,16,0.01
2013-9-20,64,52,40,30,24,18,58,38,19,0.00,40.00,18,13,26,0.00
2013-9-21,63,52,46,34,23,-100,63,33,21,0.00,40.00,19,14,28,0.00
2013-9-22,47,41,37,44,38,33,99,88,61,0.00,40.00,17,8,22,0.25
2013-9-23,49,39,33,38,34,30,100,83,57,0.00,40.00,18,10,26,0.08
2013-9-24,41,37,33,35,33,29,100,87,65,0.00,40.00,12,8,17,0.42
2013-9-25,34,32,31,34,32,31,100,100,99,0.00,40.00,18,9,26,0.11
2013-9-26,32,29,26,31,29,26,100,98,95,0.00,40.00,13,9,27,0.22
2013-9-27,34,29,25,31,28,24,98,94,89,0.00,40.00,15,8,23,0.01
2013-9-28,43,36,31,39,32,-100,100,91,77,0.00,40.00,23,19,36,0.01
2013-9-29,42,35,30,36,33,30,100,92,76,0.00,40.00,27,15,42,0.18
2013-9-30,35,32,29,35,30,25,100,92,67,0.00,40.00,25,14,41,0.56
2013-10-1,33,31,30,31,29,28,100,94,83,0.00,40.00,15,10,22,0.00
2013-10-2,41,30,23,30,24,21,100,81,46,0.00,40.00,14,7,28,0.06
2013-10-3,29,26,23,26,24,22,97,93,76,0.00,40.00,21,14,39,0.01
2013-10-4,36,28,22,34,26,21,96,93,89,0.00,40.00,14,7,22,0.00
2013-10-5,50,37,27,26,20,14,89,55,24,0.00,40.00,10,7,15,0.00
2013-10-6,58,47,38,27,23,18,55,39,26,0.00,40.00,18,11,31,0.00
2013-10-7,56,46,34,29,25,17,72,46,29,0.00,40.00,18,13,27,0.00
2013-10-8,37,31,27,29,25,21,95,80,52,0.00,40.00,21,9,31,0.00
2013-10-9,46,34,26,32,28,24,99,80,58,0.00,40.00,11,6,16,0.00
2013-10-10,37,33,29,32,28,26,96,84,65,0.00,40.00,14,7,20,0.00
2013-10-11,40,32,26,26,21,18,84,66,46,0.00,40.00,14,9,23,0.00
2013-10-12,42,32,28,27,21,-100,89,68,52,0.00,40.00,6,4,9,0.00
2013-10-13,40,32,27,29,26,23,89,81,63,0.00,40.00,15,8,21,0.00
2013-10-14,36,31,27,27,24,21,93,78,57,0.00,40.00,11,7,17,0.00
2013-10-15,44,33,25,27,21,16,94,66,37,0.00,40.00,14,6,22,0.00
2013-10-16,39,34,31,24,20,15,73,58,49,0.00,40.00,13,8,20,0.00
2013-10-17,36,31,28,27,25,22,91,80,66,0.00,40.00,11,8,17,0.00
2013-10-18,46,35,27,25,22,14,88,62,37,0.00,40.00,14,7,24,0.00
2013-10-19,51,40,34,23,16,-100,55,40,28,0.00,40.00,23,12,34,0.00
2013-10-20,46,38,33,30,24,10,79,58,30,0.00,40.00,18,11,34,0.00
2013-10-21,52,40,33,34,31,28,87,70,44,0.00,40.00,12,8,17,0.00
2013-10-22,57,47,41,33,26,20,71,47,24,0.00,40.00,14,8,17,0.00
2013-10-23,57,47,41,29,22,13,47,37,20,0.00,40.00,8,6,12,0.00
2013-10-24,61,49,41,25,21,15,42,34,24,0.00,40.00,10,6,13,0.00
2013-10-25,56,48,43,25,23,21,46,38,26,0.00,40.00,13,8,17,0.00
2013-10-26,56,46,42,27,20,-100,49,37,19,0.00,40.00,14,7,21,0.00
2013-10-27,48,40,24,24,21,18,81,48,34,0.00,40.00,16,10,25,0.00
2013-10-28,24,17,13,19,12,-100,90,85,80,0.00,40.00,17,12,24,0.00
2013-10-29,36,23,13,25,18,10,92,80,60,0.00,40.00,16,10,26,0.00
2013-10-30,35,28,26,24,22,18,88,76,59,0.00,40.00,17,11,30,0.00
2013-10-31,35,28,25,31,25,18,99,87,69,0.00,40.00,18,11,29,0.01
2013-11-1,38,31,28,31,27,24,99,84,61,0.00,40.00,12,8,21,0.13
2013-11-2,38,31,22,30,24,21,99,78,58,0.00,40.00,25,16,50,0.01
2013-11-3,24,20,16,21,16,13,95,88,71,0.00,40.00,14,8,27,0.01
2013-11-4,23,16,12,18,12,7,92,84,67,0.00,40.00,14,8,27,0.08
2013-11-5,24,17,10,23,12,5,96,83,57,0.00,40.00,13,9,20,0.04
2013-11-6,33,26,23,28,15,-100,99,75,56,0.00,40.00,17,10,29,0.05
2013-11-7,33,29,23,32,28,22,100,97,88,0.00,40.00,25,16,57,0.06
2013-11-8,28,24,21,27,23,20,97,96,95,0.00,40.00,17,10,28,0.04
2013-11-9,32,26,20,29,22,-100,95,90,77,0.00,40.00,14,8,20,0.23
2013-11-10,49,40,31,31,27,24,77,62,47,0.00,40.00,14,10,22,0.01
2013-11-11,53,41,35,30,27,24,71,57,41,0.00,40.00,17,7,21,0.00
2013-11-12,54,43,36,26,21,16,63,43,26,0.00,40.00,23,14,28,0.00
2013-11-13,38,33,27,33,28,21,98,80,60,0.00,40.00,20,11,32,0.02
2013-11-14,36,28,24,22,18,13,83,66,42,0.00,40.00,19,12,29,0.01
2013-11-15,27,23,21,20,17,13,94,79,59,0.00,40.00,15,11,24,0.00
2013-11-16,23,19,16,21,16,-100,94,91,91,0.00,40.00,13,9,26,0.00
2013-11-17,23,20,16,21,18,14,94,92,91,0.00,40.00,19,10,26,0.00
2013-11-18,34,28,20,18,15,12,93,61,42,0.00,40.00,17,14,28,0.05
2013-11-19,33,30,29,30,28,18,100,91,56,0.00,40.00,23,17,34,0.01
2013-11-20,30,20,10,30,18,7,100,93,87,0.00,40.00,19,10,32,0.00
2013-11-21,20,12,7,16,9,3,88,85,81,0.00,40.00,10,6,12,0.03
2013-11-22,35,21,13,9,3,-3,84,48,29,0.00,40.00,8,5,13,0.04
2013-11-23,39,28,22,9,4,-100,48,38,22,0.00,40.00,11,7,13,0.01
2013-11-24,42,35,31,9,6,2,39,29,21,0.00,40.00,13,10,19,0.00
2013-11-25,44,35,30,20,15,8,51,44,37,0.00,40.00,13,9,17,0.00
2013-11-26,42,37,33,20,18,16,53,46,38,0.00,40.00,15,10,19,0.00
2013-11-27,47,38,34,21,16,14,48,40,32,0.00,40.00,13,5,19,0.00
2013-11-28,46,36,32,18,15,14,50,43,29,0.00,40.00,9,7,14,0.00
2013-11-29,42,34,29,25,18,14,84,51,39,0.00,40.00,14,9,22,0.00
2013-11-30,32,28,27,29,25,-100,99,90,82,0.00,40.00,14,9,21,0.00
2013-12-1,30,28,27,30,28,26,100,98,92,0.00,40.00,16,12,24,0.00
2013-12-2,31,22,11,31,20,8,100,95,88,0.00,40.00,0,0,0,0.00
2013-12-3,11,-1,-11,8,-6,-17,88,80,74,0.00,40.00,0,0,0,0.00
2013-12-4,4,-9,-14,1,-14,-21,85,75,70,0.00,40.00,0,0,0,0.00
2013-12-5,12,-8,-13,9,-13,-20,87,75,70,0.00,40.00,0,0,0,0.00
2013-12-6,-5,-11,-15,-11,-17,-22,76,73,71,0.00,40.00,0,0,0,0.00
2013-12-7,-6,-13,-16,-11,-22,-100,80,71,70,0.00,40.00,0,0,0,0.00
2013-12-8,-5,-10,-12,-11,-16,-18,76,74,72,0.00,40.00,0,0,0,0.00
2013-12-9,11,3,-10,8,-1,-16,89,83,74,0.00,40.00,0,0,0,0.00
2013-12-10,18,12,9,17,10,6,94,89,87,0.00,40.00,0,0,0,0.00
2013-12-11,21,16,12,20,14,9,95,91,89,0.00,40.00,0,0,0,0.00
2013-12-12,24,20,15,22,18,13,92,90,87,0.00,40.00,0,0,0,0.05
2013-12-13,25,22,20,23,21,18,96,94,90,0.00,40.00,0,0,0,0.01
2013-12-14,28,24,21,26,21,-100,97,94,80,0.00,40.00,0,0,0,0.00
2013-12-15,36,30,26,27,22,18,82,72,60,0.00,40.00,25,11,32,0.06
2013-12-16,36,30,27,21,14,9,68,52,39,0.00,40.00,15,11,22,0.01
2013-12-17,46,36,29,16,13,11,51,40,29,0.00,40.00,20,14,34,0.00
2013-12-18,37,30,21,22,16,9,95,60,33,0.00,40.00,18,11,33,0.00
2013-12-19,22,16,10,20,13,7,94,89,85,0.00,40.00,16,7,21,0.00
2013-12-20,18,12,8,16,9,4,92,86,71,0.00,40.00,16,7,24,0.00
2013-12-21,20,18,17,18,15,-100,93,91,91,0.00,40.00,11,7,19,0.00
2013-12-22,24,22,19,23,21,17,96,94,93,0.00,40.00,10,5,15,0.00
2013-12-23,30,27,20,30,27,19,100,98,94,0.00,40.00,30,9,70,0.01
2013-12-24,24,19,16,22,17,14,94,92,90,0.00,40.00,22,12,40,0.01
2013-12-25,33,24,16,17,11,-4,92,63,21,0.00,40.00,15,10,20,0.00
2013-12-26,41,34,29,26,18,9,63,54,42,0.00,40.00,14,10,22,0.01
2013-12-27,40,35,31,16,14,7,51,42,27,0.00,40.00,23,13,37,0.01
2013-12-28,31,21,15,23,14,-100,94,78,49,0.00,40.00,18,13,34,0.00
2013-12-29,25,18,14,20,12,-1,94,78,35,0.00,40.00,18,12,29,0.00
2013-12-30,31,26,20,29,24,18,99,90,75,0.00,40.00,15,10,22,0.00
2013-12-31,29,26,22,28,26,21,99,97,95,0.00,40.00,12,8,24,0.00
2014-1-1,26,22,19,23,20,17,95,91,85,0.00,40.00,11,8,17,0.05
2014-1-2,33,28,22,25,17,10,87,62,42,0.00,40.00,23,12,32,0.01